This is the latest recevied weather packets stored in our database for station/object KI4NG. If no packets are shown the sender has not sent any weather packets the latest 10 day(s).
| Time | Temp. | Humidity | Pressure | Rain* | Wind** | Luminosity | Snow |
|---|---|---|---|---|---|---|---|
| 1777462564 | 15.56° C | 99% | 1013.7 hPa | 0 mm | - | 14 W/m² | - |
| 1777462260 | 15.56° C | 99% | 1013.5 hPa | 0 mm | - | 24 W/m² | - |
| 1777461956 | 15.56° C | 99% | 1013.4 hPa | 0 mm | - | 12 W/m² | - |
| 1777461653 | 15.56° C | 99% | 1013.2 hPa | 0 mm | - | 5 W/m² | - |
| 1777461353 | 15.56° C | 99% | 1013.2 hPa | 0 mm | - | 3 W/m² | - |
| 1777461049 | 15.56° C | 98% | 1013.2 hPa | 0 mm | - | 3 W/m² | - |
| 1777460745 | 15.56° C | 98% | 1013.3 hPa | 0 mm | - | 2 W/m² | - |
| 1777460442 | 15.56° C | 98% | 1013 hPa | 0 mm | - | 2 W/m² | - |
| 1777460137 | 15.56° C | 98% | 1013 hPa | 0 mm | - | 0 W/m² | - |
| 1777459834 | 15.56° C | 98% | 1012.8 hPa | 0 mm | - | 0 W/m² | - |
| 1777459531 | 15.56° C | 98% | 1012.7 hPa | 0 mm | - | 0 W/m² | - |
| 1777459229 | 15.56° C | 97% | 1012.6 hPa | 0 mm | - | 0 W/m² | - |
| 1777458926 | 16.11° C | 97% | 1012.6 hPa | 0 mm | - | 0 W/m² | - |
| 1777458622 | 16.11° C | 96% | 1012.9 hPa | 0 mm | - | 0 W/m² | - |
| 1777458320 | 16.11° C | 96% | 1012.8 hPa | 0 mm | - | 0 W/m² | - |
| 1777458015 | 16.11° C | 96% | 1012.6 hPa | 0 mm | - | 0 W/m² | - |
| 1777457712 | 16.11° C | 96% | 1012.9 hPa | 0 mm | - | 0 W/m² | - |
| 1777457411 | 16.11° C | 95% | 1012.6 hPa | 0 mm | - | 0 W/m² | - |
| 1777457107 | 16.11° C | 95% | 1012.7 hPa | 0 mm | - | 0 W/m² | - |
| 1777456803 | 16.11° C | 95% | 1012.4 hPa | 0 mm | - | 0 W/m² | - |
| 1777456502 | 16.11° C | 95% | 1013 hPa | 0 mm | - | 0 W/m² | - |
| 1777456198 | 16.11° C | 96% | 1012.7 hPa | 0 mm | - | 0 W/m² | - |
| 1777455894 | 16.67° C | 95% | 1012.6 hPa | 0 mm | - | 0 W/m² | - |
| 1777455591 | 16.67° C | 95% | 1012.9 hPa | 0 mm | - | 0 W/m² | - |
| 1777455288 | 16.67° C | 93% | 1012.6 hPa | 0 mm | - | 0 W/m² | - |
* Rain latest hour (hover to see other rain measurements)
** Current wind speed in m/s (hover to see current wind gust speed)